When you browse on this site, cookies collect data to enhance your experience and personalize the content and advertising you see.
Visit our Privacy Policy to learn more. By continuing to use the site, you agree to this use of cookies and data.
  • In United Kingdom
  • List of Countries
  • For 7 days
  • Water Temperature
  • Weather Map
  • Weather Widgets
  • user-avatar
    Login

    Hourly Weather Aberdeen

    Today, 19 October, Saturday

    Time Temperature Precipitation Wind Pressure Humidity
    00:00 +9°C° 0.7 mm 3 mps 739 mmHg 94%
    01:00 +9°C° 0.7 mm 3 mps 739 mmHg 94%
    02:00 +8°C° 0.7 mm 3 mps 739 mmHg 94%
    03:00 +8°C° 0.7 mm 3 mps 739 mmHg 94%
    04:00 +8°C° 0.9 mm 3 mps 739 mmHg 93%
    05:00 +7°C° 0.9 mm 4 mps 740 mmHg 92%
    06:00 +7°C° 0.9 mm 5 mps 740 mmHg 90%
    07:00 +7°C° 0.7 mm 6 mps 740 mmHg 89%
    08:00 +8°C° 0.7 mm 7 mps 741 mmHg 88%
    09:00 +7°C° 0.7 mm 8 mps 741 mmHg 86%
    10:00 +7°C° 0.3 mm 8 mps 741 mmHg 83%
    11:00 +8°C° 0.3 mm 7 mps 742 mmHg 81%
    12:00 +9°C° 0.3 mm 7 mps 742 mmHg 78%
    13:00 +9°C° 0 mm 7 mps 742 mmHg 78%
    14:00 +9°C° 0 mm 6 mps 742 mmHg 78%
    15:00 +9°C° 0 mm 5 mps 743 mmHg 78%
    16:00 +8°C° 0 mm 5 mps 743 mmHg 80%
    17:00 +7°C° 0 mm 5 mps 744 mmHg 83%
    18:00 +6°C° 0 mm 4 mps 745 mmHg 86%
    19:00 +6°C° 0 mm 4 mps 745 mmHg 87%
    20:00 +5°C° 0 mm 4 mps 746 mmHg 88%
    21:00 +5°C° 0 mm 4 mps 746 mmHg 90%
    22:00 +5°C° 0 mm 4 mps 747 mmHg 89%
    23:00 +5°C° 0 mm 4 mps 748 mmHg 89%

    Tomorrow, 20 October, Sunday

    Time Temperature Precipitation Wind Pressure Humidity
    00:00 +5°C° 0 mm 4 mps 748 mmHg 89%
    01:00 +5°C° 0.1 mm 4 mps 749 mmHg 88%
    02:00 +5°C° 0.1 mm 4 mps 749 mmHg 88%
    03:00 +5°C° 0.1 mm 4 mps 750 mmHg 88%
    04:00 +4°C° 0 mm 4 mps 750 mmHg 87%
    05:00 +4°C° 0 mm 4 mps 751 mmHg 87%
    06:00 +4°C° 0 mm 4 mps 751 mmHg 86%
    07:00 +4°C° 0 mm 4 mps 752 mmHg 84%
    08:00 +5°C° 0 mm 5 mps 752 mmHg 82%
    09:00 +6°C° 0 mm 5 mps 752 mmHg 79%
    10:00 +6°C° 0 mm 5 mps 753 mmHg 76%
    11:00 +7°C° 0 mm 6 mps 753 mmHg 73%
    12:00 +7°C° 0 mm 6 mps 754 mmHg 70%
    13:00 +7°C° 0 mm 6 mps 754 mmHg 71%
    14:00 +7°C° 0 mm 6 mps 754 mmHg 71%
    15:00 +7°C° 0 mm 6 mps 754 mmHg 72%
    16:00 +6°C° 0 mm 5 mps 755 mmHg 75%
    17:00 +5°C° 0 mm 5 mps 756 mmHg 79%
    18:00 +3°C° 0 mm 5 mps 756 mmHg 82%
    19:00 +2°C° 0 mm 5 mps 757 mmHg 84%
    20:00 +3°C° 0 mm 4 mps 757 mmHg 85%
    21:00 +1°C° 0 mm 4 mps 758 mmHg 87%
    22:00 +1°C° 0 mm 4 mps 758 mmHg 87%
    23:00 +1°C° 0 mm 4 mps 758 mmHg 86%

    Day after tomorrow, 21 October, Monday

    Time Temperature Precipitation Wind Pressure Humidity
    00:00 +1°C° 0 mm 4 mps 758 mmHg 86%
    01:00 +1°C° 0 mm 3 mps 758 mmHg 86%
    02:00 +1°C° 0 mm 3 mps 758 mmHg 86%
    03:00 +1°C° 0 mm 3 mps 759 mmHg 86%
    04:00 +2°C° 0 mm 2 mps 759 mmHg 85%
    05:00 +1°C° 0 mm 2 mps 759 mmHg 85%
    06:00 +1°C° 0 mm 2 mps 759 mmHg 85%
    07:00 +2°C° 0 mm 2 mps 759 mmHg 82%
    08:00 +3°C° 0 mm 2 mps 759 mmHg 78%
    09:00 +5°C° 0 mm 1 mps 759 mmHg 75%
    10:00 +6°C° 0 mm 1 mps 759 mmHg 71%
    11:00 +7°C° 0 mm 1 mps 759 mmHg 67%
    12:00 +8°C° 0 mm 1 mps 759 mmHg 63%
    13:00 +8°C° 0 mm 1 mps 759 mmHg 65%
    14:00 +7°C° 0 mm 2 mps 758 mmHg 67%
    15:00 +7°C° 0 mm 2 mps 758 mmHg 68%
    16:00 +6°C° 0 mm 2 mps 758 mmHg 74%
    17:00 +4°C° 0 mm 2 mps 758 mmHg 80%
    18:00 +4°C° 0 mm 1 mps 758 mmHg 86%
    19:00 +3°C° 0 mm 2 mps 757 mmHg 87%
    20:00 +3°C° 0 mm 2 mps 757 mmHg 88%
    21:00 +2°C° 0 mm 2 mps 757 mmHg 89%
    22:00 +2°C° 0 mm 2 mps 757 mmHg 87%
    23:00 +1°C° 0 mm 3 mps 756 mmHg 86%

    22 October, Tuesday

    Time Temperature Precipitation Wind Pressure Humidity
    00:00 +1°C° 0 mm 3 mps 756 mmHg 85%
    01:00 +2°C° 0 mm 3 mps 755 mmHg 84%
    02:00 +2°C° 0 mm 3 mps 755 mmHg 83%
    03:00 +2°C° 0 mm 3 mps 755 mmHg 81%
    04:00 +2°C° 0 mm 3 mps 754 mmHg 84%
    05:00 +2°C° 0 mm 3 mps 754 mmHg 87%
    06:00 +2°C° 0 mm 3 mps 754 mmHg 90%
    07:00 +3°C° 0 mm 4 mps 754 mmHg 89%
    08:00 +4°C° 0 mm 4 mps 754 mmHg 89%
    09:00 +3°C° 0 mm 5 mps 753 mmHg 88%
    10:00 +4°C° 0 mm 6 mps 753 mmHg 88%
    11:00 +4°C° 0 mm 6 mps 753 mmHg 87%
    12:00 +5°C° 0 mm 7 mps 753 mmHg 87%
    13:00 +5°C° 0 mm 6 mps 753 mmHg 87%
    14:00 +5°C° 0 mm 6 mps 752 mmHg 87%
    15:00 +5°C° 0 mm 6 mps 752 mmHg 87%
    16:00 +5°C° 0 mm 6 mps 752 mmHg 87%
    17:00 +5°C° 0 mm 6 mps 751 mmHg 87%
    18:00 +5°C° 0 mm 6 mps 751 mmHg 87%
    19:00 +5°C° 0 mm 6 mps 751 mmHg 87%
    20:00 +5°C° 0 mm 6 mps 751 mmHg 87%
    21:00 +5°C° 0 mm 6 mps 751 mmHg 86%
    22:00 +5°C° 0 mm 6 mps 750 mmHg 86%
    23:00 +5°C° 0 mm 6 mps 750 mmHg 86%

    23 October, Wednesday

    Time Temperature Precipitation Wind Pressure Humidity
    00:00 +5°C° 0 mm 6 mps 750 mmHg 86%
    01:00 +5°C° 0 mm 6 mps 749 mmHg 86%
    02:00 +5°C° 0 mm 6 mps 749 mmHg 85%
    03:00 +5°C° 0 mm 6 mps 748 mmHg 84%
    04:00 +5°C° 0 mm 6 mps 748 mmHg 84%
    05:00 +5°C° 0 mm 6 mps 748 mmHg 84%
    06:00 +5°C° 0 mm 6 mps 747 mmHg 84%
    07:00 +7°C° 0 mm 6 mps 747 mmHg 84%
    08:00 +7°C° 0 mm 6 mps 747 mmHg 83%
    09:00 +8°C° 0 mm 6 mps 746 mmHg 83%
    10:00 +8°C° 0 mm 7 mps 746 mmHg 82%
    11:00 +8°C° 0 mm 7 mps 745 mmHg 81%
    12:00 +9°C° 0 mm 8 mps 745 mmHg 80%
    13:00 +8°C° 0.1 mm 7 mps 744 mmHg 83%
    14:00 +8°C° 0.1 mm 6 mps 743 mmHg 86%
    15:00 +8°C° 0.1 mm 5 mps 742 mmHg 88%
    16:00 +8°C° 0.7 mm 6 mps 742 mmHg 89%
    17:00 +9°C° 0.7 mm 7 mps 741 mmHg 90%
    18:00 +9°C° 0.7 mm 7 mps 741 mmHg 92%
    19:00 +9°C° 0.1 mm 7 mps 741 mmHg 92%
    20:00 +9°C° 0.1 mm 6 mps 741 mmHg 92%
    21:00 +9°C° 0.1 mm 6 mps 740 mmHg 92%
    22:00 +8°C° 0.1 mm 5 mps 740 mmHg 93%
    23:00 +8°C° 0.1 mm 5 mps 740 mmHg 94%

    24 October, Thursday

    Time Temperature Precipitation Wind Pressure Humidity
    00:00 +7°C° 0.1 mm 4 mps 740 mmHg 95%
    01:00 +7°C° 0 mm 4 mps 739 mmHg 94%
    02:00 +7°C° 0 mm 5 mps 739 mmHg 94%
    03:00 +7°C° 0 mm 5 mps 739 mmHg 93%
    04:00 +7°C° 0 mm 5 mps 739 mmHg 93%
    05:00 +7°C° 0 mm 5 mps 739 mmHg 93%
    06:00 +6°C° 0 mm 5 mps 739 mmHg 93%
    07:00 +6°C° 0 mm 5 mps 739 mmHg 92%
    08:00 +7°C° 0 mm 6 mps 739 mmHg 91%
    09:00 +7°C° 0 mm 6 mps 739 mmHg 89%
    10:00 +8°C° 0.2 mm 6 mps 739 mmHg 88%
    11:00 +8°C° 0.2 mm 6 mps 739 mmHg 86%
    12:00 +8°C° 0.2 mm 6 mps 739 mmHg 84%
    13:00 +8°C° 0.3 mm 6 mps 740 mmHg 83%
    14:00 +6°C° 0.3 mm 7 mps 740 mmHg 83%
    15:00 +6°C° 0.3 mm 7 mps 740 mmHg 82%
    16:00 +5°C° 0 mm 6 mps 740 mmHg 84%
    17:00 +6°C° 0 mm 5 mps 741 mmHg 86%
    18:00 +5°C° 0 mm 5 mps 742 mmHg 88%
    19:00 +5°C° 0 mm 4 mps 743 mmHg 89%
    20:00 +4°C° 0 mm 3 mps 743 mmHg 90%
    21:00 +4°C° 0 mm 2 mps 744 mmHg 91%
    22:00 +4°C° 0 mm 2 mps 745 mmHg 92%
    23:00 +4°C° 0 mm 2 mps 746 mmHg 92%
    Show more